Location: Aulus
(42.7909°N, 1.3399°E)
Time: 05:57:43
(UTC+00:00)

Cosmos 2237 - Pass Details

Date: 19 May 2025
Orbit: 847 x 854 km, 70.8° (Epoch: 18 June)

Event Time Altitude Azimuth Distance (km) Brightness Sun altitude
Rises 22:51:22 0° 335° (NNW) 3,419 8.7 -25.7°
Reaches altitude 10° 22:53:49 10° 337° (NNW) 2,480 7.6 -25.9°
Maximum altitude 22:59:32 80° 65° (ENE) 865 4.1 -26.1°
Enters shadow 23:00:06 71° 124° (SE) 895 4.1 -26.1°
